CZ-6A DEB, 56648

Orbit data source: Space-Track

CZ-6A DEB, 56648 is space debris in SSO originally from a launch on Fri, 11 Nov 2022 UTC launched from the Taiyaun Space Center, China (TSC). Debris objects in space refer to the collection of defunct objects orbiting the Earth. Examples of debris include non-operational satellites, rocket bodies, and fragments generated from explosions, collisions, or faulty payload assembly.

Loading next visibility...
Identifier
56648, 2022-151AFY
Orbit
SSO
Country
Flag of CNCN / PRC
Related business
Manufacturer
SAST
Mission
Spacecraft
Bus & Motor
Unknown
Mass
Unknown
Launch date (UTC)
2022-11-11 (4 years ago)
Launch vehicle
Unknown
Launch site
Taiyaun Space Center, China (TSC)
Object type
Payload
Rocket body
Debris
Shape & HBR
Unknown shape, 0.1 m
Radar Cross Section
Small (<0.1 m²)

Expand to show TLE details & history
Last TLE update: 2 days ago

TLE from 2 days ago
0 CZ-6A DEB
1 56648U 22151AFY 26171.24457751  .00000228  00000-0  15185-3 0  9997
2 56648  98.8326 167.4031 0051809 345.5248  14.4436 14.10031391162603
Epoch: 2026-06-20T05:52Z
TLE epoch observation values (Epoch: 2026-06-20T05:52:11.496Z)
Latitude
-0.00004°
Longitude
170.89323°
Altitude
825.855 km
Speed
7.459 km/s
True Right ascension
11h 09m 36s
True Declination
0° 00' 00"
Sunlit
Object was in daylight at epoch
Visualization orbit readout
Latitude
Unknown
Longitude
Unknown
Altitude
Unknown
Speed
Unknown
Apparent Right ascension
Unknown
Apparent Declination
Unknown
Sunlit
N/A
Visualization observer readout
Local Sidereal Time
21:29:58
Azimuth
Unknown
Elevation
Unknown
Doppler factor
Unknown
Orbital elements
Apogee altitude
893.924 km
Perigee altitude
818.96 km
Semi-major axis
7,234.579 km
Eccentricity
0.00518
Inclination
98.8326°
RAAN
167.4031°
Arg. of periapsis
345.5248°
True anomaly
14.59262°
Mean anomaly
14.4436°
Eccentric anomaly
14.51801°
Mean motion
3.52714 °/min
Orbital period
102.07 mins
BSTAR
0.00015185
Loading maneuver chart data...
Computing Atmospheric mass density...
Loading historical data...
Loading historical data...
Loading historical data...
Loading historical data...
Loading historical data...
Loading historical data...
Loading historical data...

Documentation

Showing up to 5 results
|